This demonstration page uses our WeatherBlox Daily Observations layout. Learn more.

Left ArrowRight Arrow

Hourly Observations for June 11, 2016

Temp ( °F °C ) Dew Point ( °F °C ) Humidity (%) Winds ( mph kmh ) Pressure ( in mb ) Visibility ( mi km ) Precip ( " mm )
12:53 am 00:53 Clear 70 21.1 35 1.7 28 28 NNW 12 19 29.94 1014 10 16 0.00 0.00
1:53 am 01:53 Clear 69 20.6 35 1.7 29 29 N 14 22 29.95 1014 10 16 0.00 0.00
2:53 am 02:53 Mostly Cloudy 68 20 36 2.2 31 31 N 14 22 29.96 1015 10 16 0.00 0.00
3:53 am 03:53 Mostly Cloudy 67 19.4 35 1.7 31 31 N 14 22 29.96 1015 10 16 0.00 0.00
4:53 am 04:53 Clear 66 18.9 35 1.7 32 32 N 14 22 29.97 1015 10 16 0.00 0.00
5:53 am 05:53 Sunny 65 18.3 34 1.1 32 32 NNW 12 19 29.97 1015 10 16 0.00 0.00
6:53 am 06:53 Sunny 64 17.8 34 1.1 33 33 NNW 15 24 29.97 1015 10 16 0.00 0.00
7:53 am 07:53 Sunny 67 19.4 33 0.6 28 28 NNW 16 26 29.98 1015 10 16 0.00 0.00
8:53 am 08:53 Sunny 71 21.7 33 0.6 25 25 N 17 28 29.97 1015 10 16 0.00 0.00
9:53 am 09:53 Sunny 74 23.3 33 0.6 22 22 N 17 28 29.97 1015 10 16 0.00 0.00
10:53 am 10:53 Sunny 78 25.6 32 0 19 19 N 17 28 29.96 1015 10 16 0.00 0.00
11:53 am 11:53 Sunny 82 27.8 29 -1.7 14 14 N 16 26 29.94 1014 10 16 0.00 0.00
12:53 pm 12:53 Sunny 85 29.4 27 -2.8 12 12 NNE 20 31 29.92 1013 10 16 0.00 0.00
1:53 pm 13:53 Sunny 86 30 25 -3.9 11 11 N 20 31 29.90 1012 10 16 0.00 0.00
2:53 pm 14:53 Sunny 88 31.1 21 -6.1 8 8 NNE 18 30 29.88 1012 10 16 0.00 0.00
3:53 pm 15:53 Sunny 89 31.7 23 -5 9 9 N 18 30 29.86 1011 10 16 0.00 0.00
4:53 pm 16:53 Sunny 89 31.7 27 -2.8 11 11 NNW 14 22 29.85 1011 10 16 0.00 0.00
5:53 pm 17:53 Sunny 89 31.7 31 -0.6 12 12 N 15 24 29.84 1011 10 16 0.00 0.00
6:53 pm 18:53 Sunny 88 31.1 30 -1.1 12 12 N 14 22 29.83 1010 10 16 0.00 0.00
7:53 pm 19:53 Sunny 86 30 30 -1.1 13 13 N 10 17 29.84 1010 10 16 0.00 0.00
8:33 pm 20:33 Mostly Sunny 83 28.3 33 0.6 17 17 NNW 8 13 29.85 1011 10 16 0.00 0.00
8:53 pm 20:53 Clear 82 27.8 31 -0.6 16 16 N 10 17 29.85 1011 10 16 0.00 0.00
9:53 pm 21:53 Clear 80 26.7 30 -1.1 16 16 N 12 19 29.87 1012 10 16 0.00 0.00
10:53 pm 22:53 Clear 78 25.6 29 -1.7 16 16 N 10 17 29.87 1012 10 16 0.00 0.00
11:53 pm 23:53 Clear 76 24.4 30 -1.1 18 18 NNW 8 13 29.88 1012 10 16 0.00 0.00

Powered by AerisWeather